Location: Crescent
(42.8242°N, 73.7329°W)
Time: 19:18:37
(UTC+00:00)

Explorer 7 - Pass Details

Date: 22 February 2026
Orbit: 430 x 541 km, 50.2° (Epoch: 10 March)

Event Time Altitude Azimuth Distance (km) Brightness Sun altitude
Rises 00:48:40 0° 295° (WNW) 2,537 11.4 -25.3°
Reaches altitude 10° 00:50:55 10° 287° (WNW) 1,676 10.3 -25.7°
Enters shadow 00:53:54 34° 239° (WSW) 836 8.0 -26.2°
Maximum altitude 00:54:25 36° 220° (SW) 810 - -26.3°
Drops below altitude 10° 00:58:02 10° 153° (SSE) 1,730 - -26.9°
Sets 01:00:23 0° 144° (SE) 2,632 - -27.4°
